Overview Statistics Trail Chart Weather Telemetry Raw packets
 

This is the latest recevied weather packets stored in our database for station/object HI3LT-13. If no packets are shown the sender has not sent any weather packets the latest 10 day(s).

<< 26 27 28 29 30 31 32 >>
Time Temp. Humidity Pressure Rain* Wind** Luminosity Snow
1788224665 26.67° C 81% 1015 hPa 0 mm - - -
1788224065 26.11° C 78% 1014 hPa 0 mm - - -
1788223464 26.67° C 76% 1014 hPa 0 mm - - -
1788222863 27.22° C 79% 1014 hPa 0 mm - - -
1788222262 27.78° C 71% 1014 hPa 0 mm - - -
1788221661 27.78° C 70% 1014 hPa 0 mm - - -
1788221061 27.78° C 70% 1014 hPa 0 mm - - -
1788220460 27.78° C 70% 1014 hPa 0 mm - - -
1788219859 27.78° C 71% 1013 hPa 0 mm - - -
1788219259 27.78° C 71% 1013 hPa 0 mm - - -
1788218658 27.78° C 71% 1012 hPa 0 mm - - -
1788218057 27.78° C 71% 1012 hPa 0 mm - - -
1788217457 28.33° C 69% 1012 hPa 0 mm - - -
1788216856 28.33° C 68% 1012 hPa 0 mm - - -
1788216255 28.33° C 67% 1012 hPa 0 mm - - -
1788215654 28.33° C 67% 1012 hPa 0 mm - - -
1788215068 30.56° C 66% 1012 hPa 0 mm - - -
1788214453 28.89° C 67% 1012 hPa 0 mm - - -
1788213852 30° C 66% 1012 hPa 0 mm - - -
1788213251 30° C 66% 1012 hPa 0.25 mm - - -
1788212651 30° C 65% 1012 hPa 0.25 mm - - -
1788212050 30° C 64% 1012 hPa 0.51 mm - - -
1788211449 31.11° C 61% 1011 hPa 0.76 mm - - -
1788210848 31.67° C 60% 1011 hPa 0.76 mm - - -
1788210247 32.22° C 60% 1011 hPa 0.76 mm - - -

* Rain latest hour (hover to see other rain measurements)
** Current wind speed in m/s (hover to see current wind gust speed)